Ravenna, OH

10:32 PM EDT on April 27, 2017 (GMT -0400)
Ravenna

Weather History for KPOV - February, 2013

Change the Weather History Date:

Saturday, February 23, 2013

  Actual Average (KCAK) Record (KCAK)
Temperature  
Mean Temperature 30 °F -  
Max Temperature 35 °F 41 °F 69 °F (2017)
Min Temperature 26 °F 25 °F -5 °F (2015)
Degree Days  
Heating Degree Days 34    
Moisture  
Dew Point 27 °F    
Average Humidity 77    
Maximum Humidity 89    
Minimum Humidity 64    
Precipitation  
Precipitation 0.00 in - - ()
Sea Level Pressure  
Sea Level Pressure 29.90 in    
Wind  
Wind Speed 4 mph (WSW)    
Max Wind Speed 12 mph    
Max Gust Speed 20 mph    
Visibility 10 miles    
Events      
Averages and records for this station are not official NWS values.
T = Trace of Precipitation, MM = Missing Value Source: NWS Daily Summary

Daily Weather History Graph

Daily Weather History Graph

Search for Another Location

Airport or City:

Trip Planner

Search our weather history database for the weather conditions in past years. The results will help you decide how hot, cold, wet, or windy it might be!

Date:

Astronomy

Feb. 23, 2013 Rise Set
Actual Time 7:08 AM EST 6:09 PM EST
Civil Twilight 6:40 AM EST 6:37 PM EST
Nautical Twilight 6:08 AM EST 7:09 PM EST
Astronomical Twilight 5:36 AM EST 7:41 PM EST
Moon 4:17 PM EST (2/23) 5:30 AM EST (2/23)
Length of Visible Light 11h 56m
Length of Day
11h 01m
Waxing Gibbous, 95% of the Moon is Illuminated
Feb 23
Waxing Gibbous
Feb 25
Full
Mar 4
Last Quarter
Mar 11
New
Mar 19
First Quarter

Hourly Weather History & Observations

Time (EST) Temp. Windchill Dew Point Humidity Pressure Visibility Wind Dir Wind Speed Gust Speed Precip Events Conditions
12:16 AM 35.6 °F - 32.0 °F 87% 29.95 in 10.0 mi Calm Calm - N/A   Overcast
12:35 AM 35.1 °F - 31.6 °F 87% 29.95 in 10.0 mi Calm Calm - N/A   Overcast
12:56 AM 35.1 °F 31.0 °F 30.9 °F 85% 29.95 in 10.0 mi SW 4.6 mph - N/A   Overcast
1:16 AM 35.6 °F - 30.2 °F 81% 29.95 in 10.0 mi Calm Calm - N/A   Overcast
1:35 AM 34.5 °F - 30.9 °F 87% 29.95 in 10.0 mi Calm Calm - N/A   Overcast
1:56 AM 35.1 °F - 30.4 °F 83% 29.94 in 10.0 mi Calm Calm - N/A   Overcast
2:16 AM 34.3 °F - 30.7 °F 87% 29.94 in 10.0 mi Calm Calm - N/A   Overcast
2:35 AM 34.7 °F - 30.9 °F 86% 29.93 in 10.0 mi Calm Calm - N/A   Overcast
2:56 AM 34.7 °F - 30.9 °F 86% 29.93 in 10.0 mi Calm Calm - N/A   Overcast
3:35 AM 34.9 °F 32.0 °F 29.8 °F 82% 29.92 in 10.0 mi SW 3.5 mph - N/A   Overcast
3:56 AM 34.7 °F 31.8 °F 29.3 °F 81% 29.91 in 10.0 mi SSW 3.5 mph - N/A   Overcast
4:16 AM 34.7 °F 31.8 °F 29.3 °F 81% 29.91 in 10.0 mi SW 3.5 mph - N/A   Overcast
4:35 AM 34.9 °F 29.9 °F 28.8 °F 78% 29.91 in 10.0 mi SW 5.8 mph - N/A   Overcast
4:56 AM 34.7 °F 31.8 °F 28.9 °F 79% 29.92 in 10.0 mi SSW 3.5 mph - N/A   Overcast
5:16 AM 34.9 °F 30.8 °F 28.8 °F 78% 29.92 in 10.0 mi SSW 4.6 mph - N/A   Overcast
5:36 AM 34.9 °F 30.8 °F 28.9 °F 79% 29.92 in 10.0 mi SW 4.6 mph - N/A   Overcast
5:55 AM 34.7 °F 31.8 °F 28.9 °F 79% 29.92 in 10.0 mi SW 3.5 mph - N/A   Overcast
6:16 AM 34.7 °F 30.6 °F 29.1 °F 80% 29.92 in 10.0 mi SSW 4.6 mph - N/A   Overcast
6:35 AM 34.7 °F 29.6 °F 28.9 °F 79% 29.92 in 10.0 mi SW 5.8 mph - N/A   Overcast
6:56 AM 34.9 °F 29.0 °F 28.4 °F 77% 29.92 in 10.0 mi SW 6.9 mph - N/A   Overcast
7:16 AM 34.9 °F 29.9 °F 28.2 °F 77% 29.91 in 10.0 mi SW 5.8 mph - N/A   Overcast
7:35 AM 34.9 °F 30.8 °F 28.2 °F 77% 29.91 in 10.0 mi SW 4.6 mph - N/A   Overcast
7:56 AM 34.9 °F 29.9 °F 28.4 °F 77% 29.91 in 10.0 mi SW 5.8 mph - N/A   Overcast
8:16 AM 34.9 °F 29.9 °F 28.4 °F 77% 29.91 in 10.0 mi WSW 5.8 mph - N/A   Overcast
8:35 AM 34.9 °F 29.0 °F 28.4 °F 77% 29.92 in 10.0 mi WSW 6.9 mph - N/A   Overcast
8:56 AM 34.9 °F 29.0 °F 28.4 °F 77% 29.92 in 10.0 mi WSW 6.9 mph - N/A   Overcast
9:16 AM 34.9 °F 28.3 °F 28.8 °F 78% 29.91 in 10.0 mi WSW 8.1 mph - N/A   Overcast
9:36 AM 35.1 °F 29.3 °F 28.8 °F 78% 29.91 in 10.0 mi WSW 6.9 mph - N/A   Overcast
9:55 AM 34.9 °F 29.0 °F 28.6 °F 78% 29.91 in 10.0 mi West 6.9 mph - N/A   Overcast
10:16 AM 34.0 °F 27.2 °F 28.4 °F 80% 29.91 in 10.0 mi West 8.1 mph - N/A   Overcast
10:35 AM 34.0 °F 26.6 °F 28.4 °F 80% 29.91 in 10.0 mi West 9.2 mph - N/A   Overcast
10:56 AM 33.8 °F 27.0 °F 26.8 °F 75% 29.91 in 10.0 mi West 8.1 mph - N/A   Overcast
11:16 AM 34.2 °F 25.7 °F 26.4 °F 73% 29.91 in 10.0 mi West 11.5 mph 19.6 mph N/A   Overcast
11:35 AM 34.5 °F 26.7 °F 26.6 °F 73% 29.90 in 10.0 mi West 10.4 mph - N/A   Overcast
11:56 AM 33.8 °F 26.4 °F 26.8 °F 75% 29.90 in 10.0 mi West 9.2 mph - N/A   Overcast
12:16 PM 34.2 °F 28.2 °F 26.8 °F 74% 29.90 in 10.0 mi West 6.9 mph - N/A   Overcast
12:36 PM 34.0 °F 28.0 °F 27.7 °F 78% 29.89 in 10.0 mi WNW 6.9 mph - N/A   Overcast
12:56 PM 33.3 °F 25.7 °F 27.1 °F 78% 29.89 in 10.0 mi West 9.2 mph - N/A   Overcast
1:16 PM 33.8 °F 25.8 °F 26.4 °F 74% 29.89 in 10.0 mi West 10.4 mph - N/A   Overcast
1:35 PM 34.2 °F 28.2 °F 25.7 °F 71% 29.88 in 10.0 mi WSW 6.9 mph - N/A   Overcast
1:56 PM 34.7 °F 26.9 °F 25.7 °F 70% 29.88 in 10.0 mi West 10.4 mph - N/A   Overcast
2:16 PM 34.5 °F 27.3 °F 25.3 °F 69% 29.87 in 10.0 mi West 9.2 mph - N/A   Overcast
2:35 PM 34.3 °F 27.0 °F 25.2 °F 69% 29.87 in 10.0 mi West 9.2 mph - N/A   Overcast
3:16 PM 35.2 °F 28.8 °F 24.4 °F 65% 29.87 in 10.0 mi WSW 8.1 mph - N/A   Overcast
3:35 PM 34.9 °F 28.3 °F 24.6 °F 66% 29.87 in 10.0 mi West 8.1 mph - N/A   Overcast
3:56 PM 35.1 °F 29.3 °F 23.9 °F 64% 29.86 in 10.0 mi WSW 6.9 mph - N/A   Overcast
4:16 PM 34.9 °F 29.0 °F 24.1 °F 65% 29.86 in 10.0 mi West 6.9 mph - N/A   Overcast
4:35 PM 34.7 °F 28.8 °F 23.5 °F 64% 29.86 in 10.0 mi WSW 6.9 mph - N/A   Overcast
4:56 PM 34.7 °F 28.1 °F 24.1 °F 65% 29.86 in 10.0 mi West 8.1 mph - N/A   Overcast
5:16 PM 34.2 °F 29.0 °F 23.7 °F 66% 29.87 in 10.0 mi West 5.8 mph - N/A   Overcast
5:35 PM 33.8 °F 28.6 °F 23.9 °F 67% 29.88 in 10.0 mi West 5.8 mph - N/A   Overcast
5:56 PM 33.3 °F 27.1 °F 23.5 °F 68% 29.87 in 10.0 mi WNW 6.9 mph - N/A   Overcast
6:16 PM 33.1 °F 28.7 °F 23.7 °F 68% 29.88 in 10.0 mi WNW 4.6 mph - N/A   Overcast
6:35 PM 32.7 °F 26.4 °F 23.5 °F 69% 29.88 in 10.0 mi WNW 6.9 mph - N/A   Overcast
6:56 PM 32.0 °F 25.6 °F 23.7 °F 71% 29.89 in 10.0 mi WNW 6.9 mph - N/A   Mostly Cloudy
7:16 PM 31.6 °F 23.7 °F 23.0 °F 70% 29.89 in 10.0 mi West 9.2 mph - N/A   Scattered Clouds
7:35 PM 30.9 °F 25.2 °F 22.6 °F 71% 29.89 in 10.0 mi West 5.8 mph - N/A   Scattered Clouds
7:56 PM 30.2 °F 26.7 °F 23.0 °F 75% 29.88 in 10.0 mi WNW 3.5 mph - N/A   Scattered Clouds
8:16 PM 29.8 °F 26.3 °F 22.6 °F 75% 29.87 in 10.0 mi WNW 3.5 mph - N/A   Scattered Clouds
8:35 PM 29.5 °F - 22.3 °F 75% 29.88 in 10.0 mi Calm Calm - N/A   Clear
8:56 PM 28.4 °F - 22.8 °F 80% 29.89 in 10.0 mi Calm Calm - N/A   Scattered Clouds
9:16 PM 28.0 °F - 23.0 °F 81% 29.88 in 10.0 mi Calm Calm - N/A   Scattered Clouds
9:35 PM 28.4 °F - 23.5 °F 82% 29.89 in 10.0 mi Calm Calm - N/A   Scattered Clouds
9:56 PM 28.4 °F - 23.7 °F 83% 29.89 in 10.0 mi Calm Calm - N/A   Mostly Cloudy
10:16 PM 28.0 °F - 24.1 °F 85% 29.89 in 10.0 mi Calm Calm - N/A   Mostly Cloudy
10:35 PM 28.0 °F - 24.3 °F 86% 29.88 in 10.0 mi Calm Calm - N/A   Mostly Cloudy
10:55 PM 26.6 °F - 23.7 °F 89% 29.87 in 10.0 mi Calm Calm - N/A   Scattered Clouds
11:35 PM 27.5 °F - 24.4 °F 88% 29.85 in 10.0 mi Calm Calm - N/A   Overcast
11:56 PM 28.6 °F - 24.4 °F 84% 29.85 in 10.0 mi Calm Calm - N/A   Overcast